CW9687 Weather Reports


Display with metric or nautical units.
time (UTC)temp
F
wind
direction
speed
MPH
gust
MPH
rain 1hr
in
rain 24hr
in
rain mn
in
humidity
%
barometer
mb
20260508052047 55 60 0.0 3.0 0.00 0.00 0.00 83 1016.9
20260508051548 55 60 0.0 3.0 0.00 0.00 0.00 82 1017.0
20260508051050 55 60 0.0 3.0 0.00 0.00 0.00 82 1016.9
20260508050547 55 60 0.0 3.0 0.00 0.00 0.00 82 1016.9
20260508050044 55 60 0.0 2.0 0.00 0.00 0.00 82 1016.9
20260508045542 55 60 0.0 2.0 0.00 0.00 0.00 82 1017.0
20260508045040 55 60 0.0 1.0 0.00 0.00 0.00 82 1017.0
20260508044541 55 60 0.0 1.0 0.00 0.00 0.00 82 1017.0
20260508044042 55 60 0.0 3.0 0.00 0.00 0.00 82 1016.9
20260508043540 55 60 1.0 4.0 0.00 0.00 0.00 81 1016.9
20260508043054 55 59 1.0 4.0 0.00 0.00 0.00 81 1016.9
20260508042540 55 50 1.0 4.0 0.00 0.00 0.00 81 1016.8
20260508042039 56 62 0.0 7.0 0.00 0.00 0.00 81 1016.8
20260508041548 56 71 1.0 7.0 0.00 0.00 0.00 81 1016.8
20260508041040 56 61 2.0 5.0 0.00 0.00 0.00 80 1016.8
20260508040540 56 69 0.0 4.0 0.00 0.00 0.00 80 1016.8
20260508040038 56 71 0.0 5.0 0.00 0.00 0.00 80 1016.8
20260508035533 56 71 0.0 5.0 0.00 0.00 0.00 80 1016.8
20260508035033 56 73 1.0 7.0 0.00 0.00 0.00 79 1016.7
20260508034534 56 70 2.0 7.0 0.00 0.00 0.00 79 1016.6
20260508034034 56 71 3.0 7.0 0.00 0.00 0.00 79 1016.6
20260508033532 57 86 4.0 7.0 0.00 0.00 0.00 78 1016.5
20260508033032 57 99 2.0 7.0 0.00 0.00 0.00 78 1016.5
20260508032532 57 116 2.0 6.0 0.00 0.00 0.00 77 1016.4
20260508032032 57 64 0.0 4.0 0.00 0.00 0.00 77 1016.3
20260508031532 57 69 1.0 5.0 0.00 0.00 0.00 77 1016.3
20260508031031 58 60 1.0 8.0 0.00 0.00 0.00 76 1016.3
20260508030532 58 102 2.0 8.0 0.00 0.00 0.00 76 1016.2
20260508030027 58 69 2.0 8.0 0.00 0.00 0.00 75 1016.1
20260508025525 59 97 0.0 8.0 0.00 0.00 0.00 75 1016.1
20260508025027 59 9 2.0 9.0 0.00 0.00 0.00 74 1015.9
20260508024524 59 69 2.0 9.0 0.00 0.00 0.00 74 1015.9
20260508024024 60 18 4.0 10.0 0.00 0.00 0.00 73 1015.8
20260508023525 60 42 5.0 10.0 0.00 0.00 0.00 73 1015.8
20260508023023 60 26 4.0 12.0 0.00 0.00 0.00 72 1015.9
20260508022523 61 54 3.0 10.0 0.00 0.00 0.00 72 1015.7
20260508022023 61 69 4.0 8.0 0.00 0.00 0.00 71 1015.8
20260508021524 62 19 2.0 8.0 0.00 0.00 0.00 71 1015.8
20260508021024 62 62 1.0 8.0 0.00 0.00 0.00 70 1015.7
20260508020523 63 23 3.0 8.0 0.00 0.00 0.00 70 1015.7
20260508020027 63 48 3.0 8.0 0.00 0.00 0.00 69 1015.7
20260508015516 64 40 2.0 7.0 0.00 0.00 0.00 69 1015.7
20260508015015 64 62 2.0 10.0 0.00 0.00 0.00 68 1015.7
20260508014515 65 51 0.0 10.0 0.00 0.00 0.00 68 1015.7
20260508014017 65 85 3.0 10.0 0.00 0.00 0.00 67 1015.7
20260508013514 66 12 1.0 6.0 0.00 0.00 0.00 67 1015.7
20260508013014 66 34 1.0 7.0 0.00 0.00 0.00 67 1015.6
20260508012519 66 321 0.0 8.0 0.00 0.00 0.00 67 1015.5
20260508012014 67 62 1.0 7.0 0.00 0.00 0.00 67 1015.5
20260508011515 67 19 2.0 11.0 0.00 0.00 0.00 66 1015.4
20260508011014 67 31 2.0 11.0 0.00 0.00 0.00 66 1015.4
20260508010514 67 48 3.0 9.0 0.00 0.00 0.00 66 1015.4
20260508010053 68 42 2.0 9.0 0.00 0.00 0.00 65 1015.3
20260508005556 68 335 1.0 7.0 0.00 0.00 0.00 65 1015.3
20260508005055 68 348 0.0 6.0 0.00 0.00 0.00 65 1015.2
20260508004552 68 19 0.0 10.0 0.00 0.00 0.00 65 1015.1
20260508004054 68 328 2.0 10.0 0.00 0.00 0.00 65 1015.2
20260508003551 68 56 0.0 8.0 0.00 0.00 0.00 65 1015.2
20260508003051 69 46 2.0 8.0 0.00 0.00 0.00 64 1015.2
20260508002551 69 44 3.0 10.0 0.00 0.00 0.00 64 1015.2
20260508002051 70 81 2.0 10.0 0.00 0.00 0.00 63 1015.2
20260508001612 70 36 3.0 10.0 0.00 0.00 0.00 62 1015.2
20260508001053 71 7 3.0 10.0 0.00 0.00 0.00 62 1015.1
20260508000550 72 37 2.0 8.0 0.00 0.00 0.00 61 1015.1
20260508000046 72 27 1.0 7.0 0.00 0.00 0.00 61 1015.0
20260507235543 73 313 0.0 10.0 0.00 0.00 0.00 60 1015.0
20260507235042 73 49 1.0 11.0 0.00 0.00 0.00 60 1014.9
20260507234542 74 40 3.0 11.0 0.00 0.00 0.00 59 1014.8
20260507234100 74 345 5.0 11.0 0.00 0.00 0.00 58 1014.8
20260507233541 74 324 1.0 8.0 0.00 0.00 0.00 59 1014.8
20260507233041 74 40 0.0 10.0 0.00 0.00 0.00 59 1014.8
20260507232540 74 7 1.0 9.0 0.00 0.00 0.00 59 1014.9
20260507232039 74 20 1.0 14.0 0.00 0.00 0.00 59 1014.9
20260507231543 74 266 5.0 14.0 0.00 0.00 0.00 58 1015.0
20260507231039 74 324 2.0 13.0 0.00 0.00 0.00 58 1015.0
20260507230539 74 348 4.0 13.0 0.00 0.00 0.00 58 1015.1
20260507230029 75 281 3.0 16.0 0.00 0.00 0.00 57 1015.1
20260507225529 75 316 6.0 17.0 0.00 0.00 0.00 56 1015.0
20260507225028 76 320 6.0 17.0 0.00 0.00 0.00 56 1015.1
20260507224537 76 8 3.0 12.0 0.00 0.00 0.00 56 1015.2
20260507224026 76 48 4.0 12.0 0.00 0.00 0.00 55 1015.1
20260507223526 76 348 1.0 9.0 0.00 0.00 0.00 56 1015.3
20260507223027 76 346 1.0 9.0 0.00 0.00 0.00 57 1015.2
20260507222526 76 323 2.0 10.0 0.00 0.00 0.00 57 1015.2
20260507222025 76 21 2.0 15.0 0.00 0.00 0.00 56 1015.2
20260507221525 76 123 4.0 15.0 0.00 0.00 0.00 56 1015.2
20260507221024 76 333 5.0 13.0 0.00 0.00 0.00 57 1015.2
20260507220523 76 32 1.0 14.0 0.00 0.00 0.00 56 1015.4
20260507220002 77 13 3.0 14.0 0.00 0.00 0.00 56 1015.4
20260507215606 77 239 1.0 11.0 0.00 0.00 0.00 56 1015.4
20260507215102 77 311 4.0 12.0 0.00 0.00 0.00 56 1015.5
20260507214604 77 19 4.0 12.0 0.00 0.00 0.00 56 1015.5
20260507214100 77 5 1.0 12.0 0.00 0.00 0.00 57 1015.6
20260507213600 77 11 3.0 18.0 0.00 0.00 0.00 58 1015.6
20260507213059 77 38 2.0 13.0 0.00 0.00 0.00 58 1015.6
20260507212601 77 10 4.0 12.0 0.00 0.00 0.00 58 1015.6
20260507212057 77 310 1.0 8.0 0.00 0.00 0.00 59 1015.6
20260507211556 77 350 2.0 11.0 0.00 0.00 0.00 59 1015.7
20260507211054 77 6 1.0 11.0 0.00 0.00 0.00 60 1015.8
20260507210558 76 23 2.0 11.0 0.00 0.00 0.00 60 1015.8
20260507210044 76 42 2.0 10.0 0.00 0.00 0.00 62 1015.8
20260507205544 75 353 2.0 10.0 0.00 0.00 0.00 63 1015.8
20260507205042 74 47 1.0 8.0 0.00 0.00 0.00 65 1015.8
20260507204544 73 358 4.0 8.0 0.00 0.00 0.00 65 1015.8
20260507204038 73 312 2.0 8.0 0.00 0.00 0.00 65 1015.9
20260507203536 72 289 1.0 8.0 0.00 0.00 0.00 66 1015.9
20260507203036 72 290 3.0 8.0 0.00 0.00 0.00 66 1016.0
20260507202533 71 291 2.0 8.0 0.00 0.00 0.00 67 1015.9
20260507202035 70 269 2.0 8.0 0.00 0.00 0.00 67 1015.9
20260507201532 70 274 4.0 8.0 0.00 0.00 0.00 68 1016.0
20260507201030 69 285 5.0 10.0 0.00 0.00 0.00 69 1016.0
20260507200531 69 272 3.0 10.0 0.00 0.00 0.00 68 1016.1
20260507200025 69 281 3.0 11.0 0.00 0.00 0.00 68 1016.1
20260507195521 69 258 5.0 11.0 0.00 0.00 0.00 68 1016.1
20260507195021 69 252 5.0 9.0 0.00 0.00 0.00 68 1016.2
20260507194521 69 258 4.0 11.0 0.00 0.00 0.00 68 1016.1
20260507194020 69 262 5.0 11.0 0.00 0.00 0.00 67 1016.2
20260507193519 69 276 2.0 10.0 0.00 0.00 0.00 67 1016.2
20260507193019 69 305 4.0 10.0 0.00 0.00 0.00 68 1016.3
20260507192516 69 298 4.0 10.0 0.00 0.00 0.00 69 1016.3
20260507192015 68 271 4.0 10.0 0.00 0.00 0.00 68 1016.3
20260507191515 68 283 3.0 8.0 0.00 0.00 0.00 68 1016.4
20260507191013 68 286 2.0 8.0 0.00 0.00 0.00 69 1016.5
20260507190512 68 290 3.0 9.0 0.00 0.00 0.00 69 1016.6
20260507190057 68 264 5.0 9.0 0.00 0.00 0.00 69 1016.6
20260507185554 68 314 4.0 10.0 0.00 0.00 0.00 69 1016.7
20260507185054 68 300 6.0 10.0 0.00 0.00 0.00 70 1016.7
20260507184600 68 269 3.0 10.0 0.00 0.00 0.00 69 1016.7
20260507184054 68 274 5.0 11.0 0.00 0.00 0.00 69 1016.7
20260507183549 68 312 5.0 12.0 0.00 0.00 0.00 69 1016.8
20260507183051 68 293 4.0 10.0 0.00 0.00 0.00 70 1016.8
20260507182547 68 306 6.0 10.0 0.00 0.00 0.00 70 1016.7
20260507182045 68 273 6.0 10.0 0.00 0.00 0.00 71 1016.7
20260507181549 67 275 2.0 11.0 0.00 0.00 0.00 71 1016.7
20260507181044 67 284 4.0 11.0 0.00 0.00 0.00 70 1016.7
20260507180543 68 296 1.0 8.0 0.00 0.00 0.00 71 1016.7
20260507180024 68 282 5.0 8.0 0.00 0.00 0.00 70 1016.7
20260507175522 67 275 3.0 8.0 0.00 0.00 0.00 72 1016.8
20260507175023 67 309 6.0 8.0 0.00 0.00 0.00 73 1016.7
20260507174532 66 337 3.0 8.0 0.00 0.00 0.00 73 1016.7
20260507174016 66 302 3.0 9.0 0.00 0.00 0.00 73 1016.8
20260507173515 66 278 5.0 9.0 0.00 0.00 0.00 73 1016.8
20260507173018 66 312 3.0 9.0 0.00 0.00 0.00 73 1016.9
20260507172513 65 264 2.0 10.0 0.00 0.00 0.00 74 1016.8
20260507172012 65 301 6.0 10.0 0.00 0.00 0.00 73 1016.9
20260507171515 65 279 2.0 9.0 0.00 0.00 0.00 74 1016.9
20260507171008 65 284 6.0 8.0 0.00 0.00 0.00 74 1016.9
20260507170507 65 310 1.0 8.0 0.00 0.00 0.00 75 1016.9
20260507170052 65 304 3.0 9.0 0.00 0.00 0.00 75 1016.9
20260507165549 65 271 6.0 9.0 0.00 0.00 0.00 75 1016.9
20260507165049 65 296 5.0 9.0 0.00 0.00 0.00 75 1017.0
20260507164547 65 233 2.0 6.0 0.00 0.00 0.00 76 1017.0
20260507164049 65 314 0.0 7.0 0.00 0.00 0.00 76 1017.1
20260507163543 64 314 2.0 8.0 0.00 0.00 0.00 77 1017.0
20260507163043 64 314 2.0 8.0 0.00 0.00 0.00 78 1017.1
20260507162541 64 312 2.0 7.0 0.00 0.00 0.00 79 1017.1
20260507162040 63 18 0.0 5.0 0.00 0.00 0.00 80 1017.1
20260507161539 62 326 1.0 4.0 0.00 0.00 0.00 81 1017.1
20260507161039 62 20 0.0 5.0 0.00 0.00 0.00 83 1017.0
20260507160535 61 12 0.0 5.0 0.00 0.00 0.00 85 1017.1
20260507160027 61 52 0.0 5.0 0.00 0.00 0.00 86 1017.1
20260507155530 60 56 0.0 4.0 0.00 0.00 0.00 87 1017.1
20260507155025 59 79 1.0 4.0 0.00 0.00 0.00 88 1017.2
20260507154522 59 51 0.0 0.0 0.00 0.00 0.00 89 1017.1
20260507154020 58 51 0.0 2.0 0.00 0.00 0.00 89 1017.2
20260507153519 57 54 0.0 3.0 0.00 0.00 0.00 89 1017.2
20260507153020 56 27 0.0 3.0 0.00 0.00 0.00 89 1017.2
20260507152518 56 22 0.0 3.0 0.00 0.00 0.00 89 1017.1
20260507152016 55 50 0.0 2.0 0.00 0.00 0.00 89 1017.1
20260507151516 55 111 0.0 0.0 0.00 0.00 0.00 89 1017.2
20260507151015 55 111 0.0 3.0 0.00 0.00 0.00 89 1017.2
20260507150514 55 110 0.0 3.0 0.00 0.00 0.00 89 1017.2
20260507150055 55 108 0.0 2.0 0.00 0.00 0.00 89 1017.2
20260507145556 55 141 0.0 2.0 0.00 0.00 0.00 89 1017.3
20260507145054 54 141 0.0 1.0 0.00 0.00 0.00 89 1017.2
20260507144553 54 141 0.0 2.0 0.00 0.00 0.00 89 1017.2
20260507144055 54 141 0.0 2.0 0.00 0.00 0.00 88 1017.2
20260507143552 54 141 0.0 0.0 0.00 0.00 0.00 88 1017.2
20260507143053 54 141 0.0 0.0 0.00 0.00 0.00 88 1017.1
20260507142550 54 141 0.0 0.0 0.00 0.00 0.00 88 1017.1
20260507142050 54 141 0.0 0.0 0.00 0.00 0.00 88 1017.0
20260507141551 53 141 0.0 0.0 0.00 0.00 0.00 88 1017.0
20260507141049 53 141 0.0 2.0 0.00 0.00 0.00 88 1017.0
20260507140537 53 141 0.0 2.0 0.00 0.00 0.00 88 1016.9
20260507140042 53 141 0.0 2.0 0.00 0.00 0.00 88 1016.8
20260507135538 53 141 0.0 2.0 0.00 0.00 0.00 88 1016.9
20260507135036 53 141 0.0 2.0 0.00 0.00 0.00 88 1016.8
20260507134541 53 140 0.0 1.0 0.00 0.00 0.00 88 1016.8
20260507134035 53 86 0.0 0.0 0.00 0.00 0.00 88 1016.8
20260507133534 53 102 0.0 0.0 0.00 0.00 0.00 87 1016.7
20260507133035 53 102 0.0 0.0 0.00 0.00 0.00 87 1016.8
20260507132532 53 102 0.0 0.0 0.00 0.00 0.00 87 1016.8
20260507132036 53 102 0.0 0.0 0.00 0.00 0.00 87 1016.8
20260507131548 53 102 0.0 0.0 0.00 0.00 0.00 87 1016.7
20260507131032 54 102 0.0 0.0 0.00 0.00 0.00 87 1016.7
20260507130531 54 102 0.0 3.0 0.00 0.00 0.00 87 1016.6
20260507130031 54 102 1.0 3.0 0.00 0.00 0.00 87 1016.6
20260507125531 54 102 0.0 1.0 0.00 0.00 0.00 87 1016.6
20260507125030 54 102 0.0 0.0 0.00 0.00 0.00 87 1016.6
20260507124533 54 102 0.0 4.0 0.00 0.00 0.00 87 1016.6
20260507124030 54 102 1.0 4.0 0.00 0.00 0.00 87 1016.6
20260507123529 54 102 0.0 0.0 0.00 0.00 0.00 87 1016.7
20260507123028 54 102 0.0 0.0 0.00 0.00 0.00 87 1016.6
20260507122531 54 102 0.0 0.0 0.00 0.00 0.00 87 1016.6
20260507122029 54 102 0.0 0.0 0.00 0.00 0.00 87 1016.6
20260507121528 54 102 0.0 0.0 0.00 0.00 0.00 87 1016.6
20260507121028 54 103 0.0 0.0 0.00 0.00 0.00 87 1016.7
20260507120527 54 103 0.0 0.0 0.00 0.00 0.00 86 1016.7
20260507120038 54 103 0.0 0.0 0.00 0.00 0.00 86 1016.7
20260507115527 54 103 0.0 0.0 0.00 0.00 0.00 86 1016.8
20260507115026 54 103 0.0 0.0 0.00 0.00 0.00 86 1016.7
20260507114526 54 103 0.0 0.0 0.00 0.00 0.00 86 1016.7
20260507114026 54 103 0.0 0.0 0.00 0.00 0.00 86 1016.7
20260507113525 54 103 0.0 0.0 0.00 0.00 0.00 86 1016.8
20260507113025 54 103 0.0 1.0 0.00 0.00 0.00 86 1016.9
20260507112525 54 103 0.0 3.0 0.00 0.00 0.00 86 1016.8
20260507112024 54 103 0.0 3.0 0.00 0.00 0.00 86 1016.8
20260507111524 54 103 0.0 1.0 0.00 0.00 0.00 86 1016.8
20260507111123 54 103 0.0 0.0 0.00 0.00 0.00 86 1016.9
20260507110522 54 103 0.0 4.0 0.00 0.00 0.00 86 1016.9
20260507110022 54 103 0.0 4.0 0.00 0.00 0.00 86 1016.9
20260507105523 54 102 0.0 3.0 0.00 0.00 0.00 86 1017.0
20260507105021 54 102 0.0 2.0 0.00 0.00 0.00 86 1017.0
20260507104521 54 102 0.0 2.0 0.00 0.00 0.00 85 1017.0
20260507104019 54 102 0.0 0.0 0.00 0.00 0.00 85 1017.2
20260507103519 54 102 0.0 0.0 0.00 0.00 0.00 86 1017.2
20260507103019 54 102 0.0 0.0 0.00 0.00 0.00 85 1017.2
20260507102522 55 102 0.0 0.0 0.00 0.00 0.00 85 1017.3
20260507102019 55 102 0.0 0.0 0.00 0.00 0.00 85 1017.3
20260507101518 55 102 0.0 0.0 0.00 0.00 0.00 85 1017.3
20260507101017 55 102 0.0 0.0 0.00 0.00 0.00 85 1017.3
20260507100517 55 102 0.0 0.0 0.00 0.00 0.00 85 1017.3
20260507100020 55 102 0.0 0.0 0.00 0.00 0.00 85 1017.3
20260507095519 55 102 0.0 2.0 0.00 0.00 0.00 85 1017.3
20260507095016 55 102 0.0 3.0 0.00 0.00 0.00 85 1017.3
20260507094517 55 102 0.0 0.0 0.00 0.00 0.00 85 1017.4
20260507094014 55 102 0.0 1.0 0.00 0.00 0.00 85 1017.3
20260507093513 55 102 0.0 1.0 0.00 0.00 0.00 85 1017.4
20260507093013 55 102 0.0 2.0 0.00 0.00 0.00 85 1017.4
20260507092513 55 102 0.0 1.0 0.00 0.00 0.00 85 1017.5
20260507092012 55 102 0.0 0.0 0.00 0.00 0.00 85 1017.5
20260507091515 55 102 0.0 3.0 0.00 0.00 0.00 85 1017.6
20260507091011 55 102 1.0 4.0 0.00 0.00 0.00 85 1017.7
20260507090513 55 102 0.0 2.0 0.00 0.00 0.00 85 1017.9
20260507090014 55 102 0.0 4.0 0.00 0.00 0.00 85 1017.8
20260507085511 55 102 0.0 3.0 0.00 0.00 0.00 85 1017.9
20260507085010 55 102 0.0 2.0 0.00 0.00 0.00 85 1017.9
20260507084512 55 102 0.0 2.0 0.00 0.00 0.00 85 1018.0
20260507084008 55 102 0.0 2.0 0.00 0.00 0.00 85 1018.1
20260507083507 55 102 0.0 1.0 0.00 0.00 0.00 85 1018.1
20260507083007 55 102 0.0 1.0 0.00 0.00 0.00 85 1018.1
20260507082506 55 102 0.0 2.0 0.00 0.00 0.00 85 1018.2
20260507082005 55 102 0.0 4.0 0.00 0.00 0.00 85 1018.2
20260507081508 55 102 0.0 4.0 0.00 0.00 0.00 84 1018.2
20260507081006 55 102 1.0 6.0 0.00 0.00 0.00 84 1018.2
20260507080505 55 104 2.0 6.0 0.00 0.00 0.00 84 1018.2
20260507080007 55 93 1.0 3.0 0.00 0.00 0.00 84 1018.3
20260507075507 55 66 0.0 3.0 0.00 0.00 0.00 84 1018.3
20260507075004 55 66 0.0 3.0 0.00 0.00 0.00 84 1018.4
20260507074502 55 49 1.0 3.0 0.00 0.00 0.00 84 1018.5
20260507074004 55 42 0.0 2.0 0.00 0.00 0.00 84 1018.5
20260507073501 55 41 0.0 1.0 0.00 0.00 0.00 84 1018.5
20260507073001 55 40 0.0 0.0 0.00 0.00 0.00 84 1018.6
20260507072501 55 40 0.0 1.0 0.00 0.00 0.00 84 1018.6
20260507072103 55 40 0.0 2.0 0.00 0.00 0.00 84 1018.6
20260507072000 55 40 0.0 2.0 0.00 0.00 0.00 84 1018.6
20260507071602 55 40 0.0 2.0 0.00 0.00 0.00 84 1018.7
20260507071100 56 40 0.0 3.0 0.00 0.00 0.00 84 1018.6
20260507070559 56 40 0.0 3.0 0.00 0.00 0.00 84 1018.7
20260507070058 56 40 0.0 1.0 0.00 0.00 0.00 84 1018.6
20260507065557 56 40 0.0 3.0 0.00 0.00 0.00 84 1018.7
20260507065057 56 40 0.0 6.0 0.00 0.00 0.00 84 1018.6
20260507064557 56 33 2.0 6.0 0.00 0.00 0.00 84 1018.7
20260507064057 56 70 0.0 5.0 0.00 0.00 0.00 84 1018.7
20260507063557 56 70 0.0 5.0 0.00 0.00 0.00 83 1018.7
20260507063058 56 94 1.0 4.0 0.00 0.00 0.00 83 1018.6
20260507062556 56 42 0.0 8.0 0.00 0.00 0.00 83 1018.6
20260507062056 56 46 0.0 3.0 0.00 0.00 0.00 83 1018.6
20260507061556 55 46 0.0 0.0 0.00 0.00 0.00 83 1018.6
20260507061056 55 46 0.0 4.0 0.00 0.00 0.00 83 1018.6
20260507060555 55 46 1.0 4.0 0.00 0.00 0.00 83 1018.5
20260507060055 55 54 0.0 0.0 0.00 0.00 0.00 83 1018.6
20260507055555 55 54 0.0 2.0 0.00 0.00 0.00 82 1018.6
20260507055056 55 54 0.0 3.0 0.00 0.00 0.00 82 1018.6
20260507054637 55 54 0.0 4.0 0.00 0.00 0.00 82 1018.6
20260507054055 55 54 1.0 4.0 0.00 0.00 0.00 81 1018.6
20260507053555 56 54 0.0 4.0 0.00 0.00 0.00 81 1018.5
20260507053055 56 54 0.0 4.0 0.00 0.00 0.00 81 1018.6
20260507052555 56 68 0.0 2.0 0.00 0.00 0.00 81 1018.6